Погода в Сент-Джордже

Бермудские Острова     32°20′05″N   64°41′31″W
темп.,
°C
ветер,
м/с
пор.,
м/с
влажн.,
%
обл.,
%
осадки,
мм/ч
давл.,
гПа
погр.,
м
13 августа, сб
сб1300:00+28ю44666 0.0 1020869
03:00+27ююз55675 0.0 1018953
06:00+27ююз44685 0.0 10181037
09:00+27ю44685 0.0 1019991
12:00+28ю55695 0.0 1020954
15:00+28ю5670100 0.0 10191039
18:00+28ююз44705 0.4 1018876
21:00+28юз336914 1.8 1019839
14 августа, вс
вс1400:00+27ююз226960 0.0 1019756
03:00+27ююв22705 0.1 1018759
06:00+27ю337226 0.0 1017805
09:00+27ююз337047 0.0 1018865
12:00+28ююз337015 0.0 1018884
15:00+28юз336924 0.6 1018781
18:00+27зсз2270100 1.8 1018292
21:00+27в227084 2.9 1018581
15 августа, пн
пн1500:00+27вюв4472100 0.6 1018590
03:00+28ююв557182 0.6 1017880
06:00+27ююз5674100 2.3 1016665
09:00+27юз457340 6.7 1017632
12:00+28юз337015 0.2 1017775
15:00+28зюз33685 0.2 1017943
18:00+28ююз22675 0.0 1016940
21:00+28ю22694 0.1 1017800
16 августа, вт
вт1600:00+28ююз447241 1.9 1017756
03:00+28ююз457333 3.4 1016858
06:00+28ююз5573100 0.4 1016919
09:00+28ююз6673100 0.9 1017924
12:00+28ююз667354 0.4 1017935
15:00+28ююз667138 1.2 1016995
18:00+28ююз677437 1.8 1016917
21:00+28ююз677476 3.6 1017861
17 августа, ср
ср1700:00+28ююз777648 0.7 1017810
03:00+28ююз787233 0.7 1015987
06:00+28ююз887488 0.0 10151032
09:00+28ююз667770 1.1 1017784
12:00+28ююз787868 0.1 1018896
15:00+28ююз887766 0.4 1017915
18:00+28ю7878100 0.1 1017856
21:00+28ююз677994 1.9 1018651